Lufkin, TX

2:36 PM CDT on March 23, 2017 (GMT -0500)
Angelina County

Weather History for KLFK - March, 2015

Change the Weather History Date:

Tuesday, March 31, 2015

  Actual Average Record
Temperature  
Mean Temperature 76 °F 63 °F  
Max Temperature 86 °F 75 °F 97 °F (1946)
Min Temperature 65 °F 51 °F 25 °F (1987)
Degree Days  
Heating Degree Days 0 4  
Month to date heating degree days 162 211  
Since 1 July heating degree days 1682 1844  
Cooling Degree Days 11 2  
Month to date cooling degree days 59 41  
Year to date cooling degree days 65 60  
Growing Degree Days 24 (Base 50)    
Moisture  
Dew Point 61 °F    
Average Humidity 64    
Maximum Humidity 87    
Minimum Humidity 40    
Precipitation  
Precipitation 0.00 in 0.12 in 1.97 in (1933)
Month to date precipitation 6.17 3.78  
Year to date precipitation 14.99 11.83  
Snow  
Snow 0.00 in - - ()
Month to date snowfall 0.0  
Since 1 July snowfall T  
Snow Depth 0.00 in    
Sea Level Pressure  
Sea Level Pressure 30.03 in    
Wind  
Wind Speed 9 mph (SSW)    
Max Wind Speed 16 mph    
Max Gust Speed 22 mph    
Visibility 10 miles    
Events      
T = Trace of Precipitation, MM = Missing Value Source: NWS Daily Summary

Daily Weather History Graph

Daily Weather History Graph

Search for Another Location

Airport or City:

Trip Planner

Search our weather history database for the weather conditions in past years. The results will help you decide how hot, cold, wet, or windy it might be!

Date:

Astronomy

Mar. 31, 2015 Rise Set
Actual Time 7:09 AM CDT 7:37 PM CDT
Civil Twilight 6:44 AM CDT 8:01 PM CDT
Nautical Twilight 6:16 AM CDT 8:30 PM CDT
Astronomical Twilight 5:47 AM CDT 8:59 PM CDT
Moon 4:34 PM CDT (3/31) 4:55 AM CDT (3/31)
Length of Visible Light 13h 17m
Length of Day
12h 28m
Waxing Gibbous, 87% of the Moon is Illuminated
Mar 31
Waxing Gibbous
Apr 4
Full
Apr 11
Last Quarter
Apr 18
New
Apr 25
First Quarter

Hourly Weather History & Observations

Time (CDT) Temp. Heat Index Dew Point Humidity Pressure Visibility Wind Dir Wind Speed Gust Speed Precip Events Conditions
12:53 AM 68.0 °F - 61.0 °F 78% 30.08 in 10.0 mi South 8.1 mph - N/A   Clear
1:53 AM 66.0 °F - 61.0 °F 84% 30.07 in 10.0 mi South 6.9 mph - N/A   Clear
2:53 AM 66.0 °F - 62.1 °F 87% 30.05 in 10.0 mi South 9.2 mph - N/A   Clear
3:53 AM 64.9 °F - 61.0 °F 87% 30.03 in 10.0 mi South 6.9 mph - N/A   Clear
4:05 AM 64.9 °F - 61.0 °F 87% 30.04 in 9.0 mi South 6.9 mph - N/A   Partly Cloudy
4:26 AM 64.9 °F - 62.1 °F 90% 30.04 in 8.0 mi South 6.9 mph - N/A   Mostly Cloudy
4:53 AM 66.0 °F - 62.1 °F 87% 30.02 in 8.0 mi South 8.1 mph - N/A   Overcast
5:53 AM 66.0 °F - 62.1 °F 87% 30.03 in 9.0 mi South 6.9 mph - N/A   Overcast
6:53 AM 66.9 °F - 62.1 °F 84% 30.05 in 10.0 mi SSW 10.4 mph - N/A   Overcast
7:40 AM 68.0 °F - 62.1 °F 81% 30.08 in 10.0 mi SW 6.9 mph - N/A   Overcast
7:53 AM 68.0 °F - 62.1 °F 81% 30.07 in 10.0 mi SW 9.2 mph - N/A   Overcast
8:14 AM 68.0 °F - 62.1 °F 81% 30.09 in 10.0 mi WSW 8.1 mph - N/A   Overcast
8:53 AM 69.1 °F - 62.1 °F 78% 30.09 in 10.0 mi SW 8.1 mph - N/A   Overcast
9:46 AM 70.0 °F - 61.0 °F 73% 30.10 in 10.0 mi SW 11.5 mph 19.6 mph N/A   Overcast
9:53 AM 71.1 °F - 61.0 °F 70% 30.09 in 10.0 mi SSW 11.5 mph - N/A   Overcast
10:53 AM 73.9 °F - 61.0 °F 64% 30.09 in 10.0 mi SW 11.5 mph - N/A   Mostly Cloudy
11:21 AM 75.9 °F - 61.0 °F 60% 30.10 in 10.0 mi SSW 10.4 mph - N/A   Scattered Clouds
11:53 AM 77.0 °F - 59.0 °F 54% 30.08 in 10.0 mi SW 12.7 mph 19.6 mph N/A   Clear
12:53 PM 80.1 °F 80.7 °F 59.0 °F 48% 30.06 in 10.0 mi Variable 6.9 mph - N/A   Partly Cloudy
1:53 PM 81.0 °F 81.1 °F 57.9 °F 45% 30.03 in 10.0 mi SSW 16.1 mph 21.9 mph N/A   Clear
2:53 PM 82.9 °F 82.4 °F 57.0 °F 41% 29.99 in 10.0 mi SW 10.4 mph 20.7 mph N/A   Clear
3:53 PM 84.0 °F 83.3 °F 57.0 °F 40% 29.96 in 10.0 mi South 11.5 mph - N/A   Clear
4:53 PM 84.9 °F 83.9 °F 57.0 °F 38% 29.95 in 10.0 mi SSW 8.1 mph - N/A   Clear
5:53 PM 82.9 °F 82.4 °F 57.0 °F 41% 29.94 in 10.0 mi SSW 9.2 mph - N/A   Clear
6:53 PM 80.1 °F 80.6 °F 57.9 °F 47% 29.94 in 10.0 mi SSW 9.2 mph - N/A   Clear
7:53 PM 75.9 °F - 59.0 °F 56% 29.94 in 10.0 mi South 4.6 mph - N/A   Clear
8:53 PM 66.9 °F - 60.1 °F 79% 29.95 in 10.0 mi SSE 4.6 mph - N/A   Clear
9:53 PM 68.0 °F - 61.0 °F 78% 29.96 in 10.0 mi SSE 6.9 mph - N/A   Clear
10:53 PM 69.1 °F - 64.0 °F 84% 29.97 in 10.0 mi SSE 8.1 mph - N/A   Clear
11:53 PM 69.1 °F - 64.0 °F 84% 29.96 in 9.0 mi SSE 6.9 mph - N/A   Clear